QPF
0.00 0.00 0.00 0.00 0.00 0.00 0.00 0.00 0.00 0.00 0.00 0.00 0.00 0.00 0.00 0.00 0.00 0.00 0.00 0.00 0.00 0.00 0.00 0.00 0.00 0.00 0.00 0.00 0.00 0.00 0.00 0.00 0.00 0.00 0.00 0.00 0.00 0.00 0.00 0.00 0.00 0.00 0.01 0.01 0.01
0.00 0.00 0.00 0.00 0.00 0.00 0.00 0.00 0.00 0.00 0.00 0.00 0.00 0.00 0.00 0.00 0.00 0.00 0.00 0.00 0.00 0.00 0.00 0.00 0.00 0.00 0.00 0.00 0.00 0.00 0.00 0.00 0.00 0.00 0.00 0.00 0.00 0.00 0.00 0.00 0.00 0.00 0.00 0.00 0.00
0.00 0.00 0.00 0.00 0.00 0.00 0.00 0.00 0.00 0.00 0.00 0.00 0.00 0.00 0.00 0.00 0.00 0.00 0.00 0.00 0.00 0.00 0.00 0.00 0.00 0.00 0.00 0.00 0.00 0.00 0.00 0.00 0.00 0.00 0.00 0.00 0.00 0.00 0.00 0.00 0.00 0.00 0.00 0.00 0.00
0.00 0.00 0.00 0.00 0.00 0.00 0.00 0.00 0.00 0.00 0.00 0.00 0.00 0.00 0.00 0.00 0.00 0.00 0.00 0.00 0.00 0.00 0.00 0.00 0.00 0.00 0.00 0.00 0.00 0.00 0.00 0.00 0.00 0.00 0.00 0.00 0.00 0.00 0.00 0.00 0.00 0.00 0.00 0.00 0.00
0.00 0.00 0.00 0.00 0.00 0.00 0.00 0.00 0.00 0.00 0.00 0.00 0.00 0.00 0.00 0.00 0.00 0.00 0.00 0.00 0.00 0.00 0.00 0.00 0.00 0.00 0.00 0.00 0.00 0.00 0.00 0.00 0.00 0.00 0.00 0.00 0.00 0.00 0.00 0.00 0.00 0.00 0.00 0.00 0.00
0.00 0.00 0.00 0.00 0.00 0.00 0.00 0.00 0.00 0.00 0.00 0.00 0.00 0.00 0.00 0.00 0.00 0.00 0.00 0.00 0.00 0.00 0.00 0.00 0.00 0.00 0.00 0.00 0.00 0.00 0.00 0.00 0.00 0.00 0.00 0.00 0.00 0.00 0.00 0.00 0.00 0.00 0.00 0.00 0.00
0.00 0.00 0.00 0.00 0.00 0.00 0.00 0.00 0.00 0.00 0.00 0.00 0.00 0.00 0.00 0.00 0.00 0.00 0.00 0.00 0.00 0.00 0.00 0.00 0.00 0.00 0.00 0.00 0.00 0.00 0.00 0.00 0.00 0.00 0.00 0.00 0.00 0.00 0.00 0.00 0.00 0.00 0.00 0.00 0.00
0.00 0.00 0.00 0.00 0.00 0.00 0.00 0.00 0.00 0.00 0.00 0.00 0.00 0.00 0.00 0.00 0.00 0.00 0.00 0.00 0.00 0.00 0.00 0.00 0.00 0.00 0.00 0.00 0.00 0.00 0.00 0.00 0.00 0.00 0.00 0.00 0.00 0.00 0.00 0.00 0.00 0.00 0.00 0.00 0.00
0.00 0.00 0.00 0.00 0.00 0.00 0.00 0.00 0.00 0.00 0.00 0.00 0.00 0.00 0.00 0.00 0.00 0.00 0.00 0.00 0.00 0.00 0.00 0.00 0.00 0.00 0.00 0.00 0.00 0.00 0.00 0.00 0.00 0.00 0.00 0.00 0.00 0.00 0.00 0.00 0.00 0.00 0.00 0.00 0.00
0.00 0.00 0.00 0.00 0.00 0.00 0.00 0.00 0.00 0.00 0.00 0.00 0.00 0.00 0.00 0.00 0.00 0.00 0.00 0.00 0.00 0.00 0.00 0.00 0.00 0.00 0.00 0.00 0.00 0.00 0.00 0.00 0.00 0.00 0.00 0.00 0.00 0.00 0.00 0.00 0.00 0.00 0.00 0.00 0.00
0.00 0.00 0.00 0.00 0.00 0.00 0.00 0.00 0.00 0.00 0.00 0.00 0.00 0.00 0.00 0.00 0.00 0.00 0.00 0.00 0.00 0.00 0.00 0.00 0.00 0.00 0.00 0.00 0.00 0.00 0.00 0.00 0.00 0.00 0.00 0.00 0.00 0.00 0.00 0.00 0.00 0.00 0.00 0.00 0.00
0.00 0.00 0.00 0.00 0.00 0.00 0.00 0.00 0.00 0.00 0.00 0.00 0.00 0.00 0.00 0.00 0.00 0.00 0.00 0.00 0.00 0.00 0.00 0.00 0.00 0.00 0.00 0.00 0.00 0.00 0.00 0.00 0.00 0.00 0.00 0.00 0.00 0.00 0.00 0.00 0.00 0.00 0.00 0.00 0.00
0.00 0.00 0.00 0.00 0.00 0.00 0.00 0.00 0.00 0.00 0.00 0.00 0.00 0.00 0.00 0.00 0.00 0.00 0.00 0.00 0.00 0.00 0.00 0.00 0.00 0.00 0.00 0.00 0.00 0.00 0.00 0.00 0.00 0.00 0.00 0.00 0.00 0.00 0.00 0.00 0.00 0.00 0.00 0.00 0.00
0.00 0.00 0.00 0.00 0.00 0.00 0.00 0.00 0.00 0.00 0.00 0.00 0.00 0.00 0.00 0.00 0.00 0.00 0.00 0.00 0.00 0.00 0.00 0.00 0.00 0.00 0.00 0.00 0.00 0.00 0.00 0.00 0.00 0.00 0.00 0.00 0.00 0.00 0.00 0.00 0.00 0.00 0.00 0.00 0.00
0.00 0.00 0.00 0.00 0.00 0.00 0.00 0.00 0.00 0.00 0.00 0.00 0.00 0.00 0.00 0.00 0.00 0.00 0.00 0.00 0.00 0.00 0.00 0.00 0.00 0.00 0.00 0.00 0.00 0.00 0.00 0.00 0.00 0.00 0.00 0.00 0.00 0.00 0.00 0.00 0.00 0.00 0.00 0.00 0.00
0.00 0.00 0.00 0.00 0.00 0.00 0.00 0.00 0.00 0.00 0.00 0.00 0.00 0.00 0.00 0.00 0.00 0.00 0.00 0.00 0.00 0.00 0.00 0.00 0.00 0.00 0.00 0.00 0.00 0.00 0.00 0.00 0.00 0.00 0.00 0.00 0.00 0.00 0.01 0.01 0.01 0.00 0.00 0.00 0.00
0.00 0.00 0.00 0.00 0.00 0.00 0.00 0.00 0.00 0.00 0.00 0.00 0.00 0.00 0.00 0.00 0.00 0.00 0.00 0.00 0.00 0.00 0.00 0.00 0.00 0.00 0.00 0.00 0.00 0.00 0.00 0.00 0.00 0.00 0.00 0.00 0.00 0.00 0.00 0.00 0.00 0.01 0.01 0.00 0.02
0.00 0.00 0.00 0.00 0.00 0.00 0.00 0.00 0.00 0.00 0.00 0.00 0.00 0.00 0.00 0.00 0.00 0.00 0.00 0.00 0.00 0.00 0.00 0.00 0.00 0.00 0.00 0.00 0.00 0.00 0.00 0.00 0.00 0.00 0.00 0.00 0.00 0.00 0.00 0.00 0.00 0.00 0.01 0.02 0.03
0.00 0.00 0.00 0.00 0.00 0.00 0.00 0.00 0.00 0.00 0.00 0.00 0.00 0.00 0.00 0.00 0.00 0.00 0.00 0.00 0.00 0.00 0.00 0.00 0.00 0.00 0.00 0.00 0.00 0.00 0.00 0.00 0.00 0.00 0.00 0.01 0.01 0.00 0.00 0.00 0.00 0.00 0.00 0.00 0.00
0.00 0.00 0.00 0.00 0.00 0.00 0.00 0.00 0.00 0.00 0.00 0.00 0.00 0.00 0.00 0.00 0.00 0.00 0.00 0.00 0.00 0.00 0.00 0.00 0.00 0.00 0.00 0.00 0.00 0.00 0.00 0.00 0.00 0.00 0.00 0.00 0.01 0.00 0.00 0.00 0.00 0.00 0.00 0.00 0.00
0.00 0.00 0.00 0.00 0.00 0.00 0.00 0.00 0.00 0.00 0.00 0.00 0.00 0.00 0.00 0.00 0.00 0.00 0.00 0.00 0.00 0.00 0.00 0.00 0.00 0.00 0.00 0.00 0.00 0.00 0.00 0.00 0.00 0.00 0.01 0.01 0.00 0.00 0.00 0.00 0.00 0.00 0.00 0.00 0.00
0.00 0.00 0.00 0.00 0.00 0.00 0.00 0.00 0.00 0.00 0.00 0.00 0.00 0.00 0.00 0.00 0.00 0.00 0.00 0.00 0.00 0.00 0.00 0.00 0.00 0.00 0.00 0.00 0.00 0.00 0.00 0.00 0.00 0.00 0.00 0.01 0.00 0.00 0.00 0.00 0.00 0.00 0.00 0.00 0.00
0.00 0.00 0.00 0.00 0.00 0.00 0.00 0.00 0.00 0.00 0.00 0.00 0.00 0.00 0.00 0.00 0.00 0.00 0.00 0.00 0.00 0.00 0.00 0.00 0.00 0.00 0.00 0.00 0.00 0.00 0.00 0.00 0.00 0.00 0.00 0.00 0.00 0.00 0.00 0.00 0.00 0.00 0.00 0.00 0.00
0.00 0.00 0.00 0.00 0.00 0.00 0.00 0.00 0.00 0.00 0.00 0.00 0.00 0.00 0.00 0.00 0.00 0.00 0.00 0.00 0.00 0.00 0.00 0.00 0.00 0.00 0.00 0.00 0.00 0.00 0.00 0.01 0.00 0.00 0.00 0.00 0.00 0.00 0.00 0.00 0.00 0.00 0.00 0.00 0.00
0.00 0.00 0.00 0.00 0.00 0.00 0.00 0.00 0.00 0.00 0.00 0.00 0.00 0.00 0.00 0.00 0.00 0.00 0.00 0.00 0.00 0.00 0.00 0.00 0.00 0.00 0.00 0.00 0.00 0.00 0.00 0.00 0.00 0.00 0.00 0.00 0.00 0.00 0.00 0.00 0.00 0.00 0.00 0.00 0.00
0.00 0.00 0.00 0.00 0.00 0.00 0.00 0.00 0.00 0.00 0.00 0.00 0.00 0.00 0.00 0.00 0.00 0.00 0.00 0.00 0.00 0.00 0.00 0.00 0.00 0.00 0.00 0.00 0.00 0.00 0.00 0.00 0.00 0.00 0.00 0.00 0.00 0.00 0.00 0.00 0.00 0.00 0.00 0.00 0.00
0.00 0.00 0.00 0.00 0.00 0.00 0.00 0.00 0.00 0.00 0.00 0.00 0.00 0.00 0.00 0.00 0.00 0.00 0.00 0.00 0.00 0.00 0.00 0.00 0.00 0.00 0.00 0.00 0.00 0.00 0.00 0.00 0.00 0.00 0.00 0.00 0.00 0.00 0.00 0.00 0.00 0.00 0.00 0.00 0.00
MSLP
1017.50 1017.36 1017.17 1016.97 1016.77 1016.58 1016.40 1016.21 1016.00 1015.78 1015.53 1015.26 1015.06 1014.89 1014.65 1014.39 1013.67 1013.60 1012.57 1010.53 1010.20 1010.08 1010.00 1009.44 1009.05 1008.76 1008.66 1008.75 1008.36 1008.27 1009.28 1009.12 1008.27 1007.86 1008.66 1008.85 1009.70 1009.40 1007.74 1007.95 1008.28 1008.85 1008.86 1009.79 1010.48
1017.37 1017.18 1016.95 1016.76 1016.59 1016.44 1016.25 1016.05 1015.84 1015.60 1015.34 1015.12 1014.96 1014.80 1014.58 1014.43 1013.85 1012.19 1010.02 1009.95 1009.94 1009.88 1009.76 1009.58 1009.24 1008.66 1008.76 1008.43 1008.33 1008.23 1008.66 1007.75 1007.11 1006.93 1006.57 1008.40 1007.73 1007.47 1007.50 1007.80 1008.52 1008.73 1008.84 1009.31 1009.94
1017.27 1017.07 1016.84 1016.62 1016.44 1016.26 1016.06 1015.87 1015.68 1015.41 1015.12 1014.93 1014.84 1014.68 1014.54 1014.53 1013.52 1010.42 1009.24 1009.61 1009.71 1009.61 1009.64 1009.44 1008.98 1008.69 1008.57 1008.07 1007.73 1007.58 1007.87 1006.78 1006.29 1005.90 1005.76 1006.95 1006.99 1006.58 1006.80 1007.69 1008.27 1008.69 1009.18 1009.50 1009.69
1017.06 1016.88 1016.70 1016.52 1016.33 1016.12 1015.92 1015.74 1015.54 1015.27 1014.96 1014.75 1014.74 1014.51 1014.26 1014.15 1012.22 1009.46 1009.27 1009.41 1009.39 1009.41 1009.65 1009.29 1008.78 1008.72 1008.30 1008.21 1007.21 1007.61 1006.47 1005.92 1005.77 1005.35 1005.54 1006.08 1006.38 1006.91 1006.86 1007.00 1007.72 1008.43 1008.97 1009.56 1010.10
1016.93 1016.76 1016.57 1016.34 1016.12 1015.90 1015.72 1015.52 1015.30 1015.04 1014.81 1014.67 1014.62 1014.39 1013.50 1013.02 1010.55 1008.93 1009.14 1009.37 1009.20 1009.49 1009.42 1009.25 1008.95 1008.19 1007.92 1007.40 1006.97 1006.46 1005.95 1005.44 1005.19 1005.02 1005.61 1005.69 1006.66 1007.06 1007.16 1007.10 1007.52 1008.29 1008.90 1009.62 1010.76
1016.91 1016.68 1016.46 1016.25 1016.00 1015.76 1015.53 1015.32 1015.11 1014.85 1014.64 1014.54 1014.41 1014.07 1013.59 1011.56 1008.31 1008.33 1008.74 1008.96 1008.72 1008.90 1008.35 1008.42 1008.04 1007.29 1006.99 1006.78 1006.63 1005.62 1005.47 1005.34 1005.12 1005.27 1005.65 1005.91 1006.61 1006.75 1007.47 1007.17 1007.75 1008.27 1009.05 1009.68 1010.97
1016.76 1016.50 1016.29 1016.06 1015.80 1015.56 1015.32 1015.10 1014.84 1014.53 1014.36 1014.39 1014.35 1013.86 1012.63 1010.16 1007.86 1007.89 1008.14 1008.13 1007.93 1007.82 1007.71 1007.33 1007.07 1007.35 1007.41 1007.16 1005.82 1005.68 1005.95 1005.74 1005.43 1005.56 1005.87 1006.01 1006.86 1007.70 1007.24 1007.18 1007.77 1008.45 1008.95 1010.06 1010.91
1016.67 1016.37 1016.06 1015.79 1015.59 1015.41 1015.13 1014.79 1014.42 1014.06 1014.04 1014.09 1014.13 1013.59 1011.67 1008.18 1007.81 1007.67 1007.66 1007.67 1007.29 1007.20 1007.23 1007.11 1007.11 1007.46 1007.69 1007.10 1006.86 1006.52 1006.56 1006.89 1006.00 1005.67 1006.07 1006.35 1007.39 1007.50 1007.47 1007.62 1008.03 1008.39 1009.11 1009.95 1010.69
1016.56 1016.21 1015.90 1015.62 1015.37 1015.11 1014.70 1014.32 1013.89 1013.60 1013.75 1013.93 1013.89 1013.09 1010.36 1007.74 1007.63 1007.39 1007.33 1007.36 1007.19 1007.08 1007.04 1007.12 1007.42 1008.02 1007.93 1008.20 1008.01 1007.37 1007.36 1007.09 1006.17 1005.44 1006.14 1006.62 1007.56 1007.57 1007.49 1007.79 1008.21 1008.47 1009.00 1009.78 1010.99
1016.37 1015.97 1015.62 1015.39 1015.16 1014.83 1014.25 1013.85 1013.29 1013.36 1012.85 1013.09 1012.54 1012.25 1009.37 1007.59 1007.32 1007.23 1007.25 1007.32 1007.45 1007.27 1007.32 1007.30 1007.87 1008.35 1008.45 1008.57 1008.71 1007.95 1007.75 1007.09 1006.18 1005.23 1005.92 1006.95 1007.34 1007.48 1007.34 1007.60 1008.06 1008.42 1009.00 1009.90 1010.81
1016.24 1015.74 1015.28 1015.13 1015.04 1014.74 1013.78 1013.30 1013.50 1013.06 1012.29 1011.22 1010.24 1009.15 1007.66 1007.03 1006.95 1006.94 1006.92 1007.14 1007.29 1007.45 1007.71 1007.36 1008.30 1008.48 1008.04 1007.88 1007.50 1007.35 1007.32 1007.05 1006.13 1005.58 1006.19 1006.63 1007.16 1007.48 1007.50 1007.81 1008.07 1008.57 1008.85 1009.93 1010.67
1016.22 1015.67 1015.13 1014.78 1014.68 1014.68 1014.66 1013.36 1011.19 1010.58 1010.28 1009.66 1008.88 1008.26 1007.39 1006.97 1006.81 1006.50 1006.60 1007.19 1007.23 1007.67 1007.30 1007.69 1007.63 1006.96 1006.79 1006.81 1007.00 1007.08 1007.21 1007.23 1006.68 1006.26 1006.79 1007.47 1007.80 1007.68 1008.04 1007.84 1007.75 1008.13 1008.55 1009.72 1011.14
1016.26 1015.67 1015.08 1014.57 1014.15 1014.47 1013.46 1011.77 1009.61 1009.53 1009.75 1008.15 1007.59 1007.23 1006.85 1006.98 1006.58 1006.39 1006.67 1006.79 1006.98 1007.26 1007.21 1007.14 1006.82 1006.49 1006.70 1006.90 1007.07 1007.20 1007.63 1007.71 1007.85 1007.38 1007.48 1008.08 1008.71 1008.72 1008.08 1008.00 1007.96 1008.09 1008.44 1009.72 1010.93
1016.25 1015.64 1015.04 1014.41 1014.10 1012.71 1011.65 1009.86 1009.43 1009.43 1009.74 1007.60 1006.81 1006.35 1006.34 1006.62 1006.61 1006.35 1006.51 1006.92 1006.87 1007.06 1006.94 1006.93 1006.54 1006.65 1006.86 1007.03 1007.12 1007.62 1007.82 1008.10 1008.56 1009.07 1009.37 1009.39 1010.03 1010.12 1009.94 1009.13 1009.22 1009.19 1009.40 1010.27 1011.34
1016.08 1015.47 1014.96 1014.99 1014.16 1012.55 1010.29 1009.38 1009.61 1009.84 1009.27 1006.94 1006.26 1005.77 1006.01 1006.67 1006.49 1006.58 1006.53 1006.70 1007.13 1007.18 1007.48 1007.38 1007.03 1006.80 1007.02 1007.35 1007.38 1007.87 1008.23 1008.94 1009.48 1010.12 1010.73 1011.15 1011.68 1012.01 1011.84 1012.39 1011.97 1011.60 1010.13 1011.18 1011.90
1015.83 1015.30 1014.80 1014.46 1013.93 1011.57 1010.35 1009.72 1009.96 1010.39 1008.27 1006.26 1005.93 1005.95 1006.31 1006.37 1006.18 1006.52 1006.54 1006.75 1006.83 1007.42 1007.52 1007.49 1006.85 1006.85 1007.18 1007.49 1007.72 1008.05 1008.67 1009.57 1010.36 1011.29 1012.70 1013.42 1013.83 1013.63 1013.94 1013.86 1013.82 1013.72 1011.74 1011.71 1012.73
1015.51 1014.77 1014.87 1013.49 1012.31 1010.65 1010.34 1010.67 1010.81 1009.72 1007.36 1006.44 1005.96 1005.92 1006.13 1006.26 1006.27 1006.41 1006.84 1007.36 1007.69 1008.15 1008.46 1008.02 1007.50 1006.93 1007.36 1007.95 1008.07 1008.85 1009.86 1011.32 1012.40 1013.08 1013.40 1012.93 1014.09 1014.45 1014.12 1014.20 1013.55 1013.39 1012.27 1013.14 1014.20
1015.22 1014.27 1013.07 1012.30 1011.37 1010.97 1011.13 1011.52 1010.83 1008.84 1007.84 1006.61 1006.32 1006.28 1006.46 1006.39 1006.57 1006.92 1007.43 1007.99 1007.98 1008.32 1009.11 1009.49 1008.97 1008.37 1008.21 1008.35 1008.93 1009.67 1010.58 1011.96 1013.24 1014.20 1014.34 1013.86 1014.33 1014.50 1013.83 1013.56 1013.01 1013.27 1014.05 1014.50 1015.32
1014.96 1013.53 1012.80 1011.43 1011.05 1011.11 1011.84 1011.63 1010.15 1008.83 1008.19 1007.69 1007.22 1006.98 1007.07 1006.69 1007.25 1007.61 1007.93 1008.50 1009.08 1009.43 1010.27 1010.49 1009.97 1009.41 1009.04 1008.57 1009.26 1010.13 1010.99 1011.75 1012.96 1013.93 1014.97 1015.12 1015.25 1014.70 1014.15 1013.74 1013.41 1013.70 1014.38 1015.19 1015.79
1016.08 1014.08 1012.02 1010.35 1010.58 1011.46 1012.33 1011.53 1010.08 1008.75 1008.38 1008.18 1008.15 1008.06 1008.15 1008.16 1008.59 1008.61 1008.63 1009.37 1010.13 1010.62 1010.87 1011.47 1011.21 1010.57 1009.90 1009.47 1009.63 1010.53 1010.84 1012.21 1013.80 1015.53 1016.20 1015.97 1016.17 1015.80 1015.12 1014.90 1015.12 1015.47 1015.68 1015.91 1016.19
1016.04 1014.05 1011.02 1010.17 1010.58 1011.78 1012.42 1011.25 1009.92 1008.88 1008.80 1008.80 1008.97 1009.17 1009.40 1009.35 1009.41 1009.46 1009.86 1010.99 1011.20 1011.62 1011.77 1012.48 1012.47 1011.99 1011.00 1010.82 1010.88 1011.29 1012.11 1013.55 1015.02 1015.75 1016.60 1016.84 1016.40 1015.13 1015.64 1015.55 1015.40 1015.85 1016.38 1016.73 1017.14
1017.03 1014.55 1011.27 1010.52 1011.70 1011.80 1011.87 1011.10 1010.16 1009.12 1009.00 1009.10 1009.29 1009.76 1010.04 1010.22 1010.47 1010.54 1010.94 1011.59 1011.96 1012.22 1013.00 1013.87 1013.58 1013.38 1012.86 1011.64 1011.01 1011.78 1012.64 1013.67 1015.03 1016.06 1016.50 1016.88 1016.75 1015.62 1015.82 1015.92 1016.08 1016.69 1016.92 1017.23 1017.75
1018.54 1015.01 1011.43 1011.10 1012.23 1012.37 1011.76 1010.91 1009.71 1009.56 1009.55 1009.80 1009.98 1010.44 1010.58 1011.10 1011.45 1011.29 1011.48 1012.07 1012.26 1012.74 1013.68 1014.40 1014.79 1014.76 1013.87 1012.82 1012.41 1012.62 1012.99 1013.53 1014.13 1015.17 1016.55 1017.26 1017.29 1016.68 1016.13 1016.13 1016.79 1017.65 1017.65 1018.02 1018.75
1019.28 1015.86 1013.11 1012.35 1012.54 1012.83 1012.63 1011.72 1010.77 1010.04 1010.24 1010.51 1010.84 1011.20 1011.55 1011.83 1011.83 1011.82 1011.77 1012.04 1012.72 1013.47 1014.21 1014.75 1015.48 1015.81 1015.60 1014.76 1013.96 1013.45 1013.04 1013.76 1014.09 1015.40 1015.90 1016.32 1017.13 1017.60 1017.09 1017.20 1017.34 1018.06 1018.62 1019.16 1019.70
1019.09 1016.61 1015.71 1014.69 1014.13 1013.91 1013.57 1012.95 1012.14 1011.46 1011.00 1011.10 1011.45 1012.04 1012.34 1012.56 1012.39 1012.40 1012.27 1012.68 1013.45 1014.03 1014.63 1015.34 1016.07 1016.12 1015.83 1015.12 1014.28 1013.59 1013.13 1013.20 1013.60 1014.23 1015.33 1015.39 1016.66 1017.88 1018.20 1018.35 1018.66 1018.95 1019.39 1019.84 1020.41
1019.31 1017.60 1016.58 1016.16 1015.14 1014.45 1014.08 1013.63 1013.06 1012.29 1012.22 1012.28 1012.60 1012.78 1013.01 1013.58 1013.81 1013.40 1013.10 1013.53 1014.07 1014.65 1015.24 1015.68 1016.18 1016.34 1016.30 1015.67 1014.85 1014.14 1013.60 1013.22 1013.37 1013.80 1014.86 1016.12 1017.01 1017.60 1018.23 1018.76 1019.48 1020.11 1020.64 1021.12 1021.69
1019.34 1018.21 1017.56 1016.77 1015.90 1015.27 1014.41 1013.70 1013.15 1013.08 1013.04 1012.94 1013.24 1013.53 1013.85 1014.13 1013.96 1013.93 1013.79 1013.88 1014.08 1014.60 1015.35 1016.16 1016.96 1017.31 1016.84 1016.41 1015.66 1014.96 1014.17 1014.00 1014.26 1015.21 1015.50 1017.06 1018.24 1018.14 1018.79 1019.64 1020.26 1020.70 1021.26 1021.60 1022.15
Thickness
5725 5727 5729 5733 5736 5739 5743 5747 5751 5755 5759 5763 5767 5769 5772 5776 5784 5784 5783 5804 5810 5813 5814 5816 5816 5815 5815 5803 5812 5812 5764 5756 5775 5793 5779 5788 5773 5794 5819 5804 5805 5805 5802 5799 5799
5727 5729 5732 5736 5739 5742 5745 5749 5753 5757 5761 5764 5767 5769 5772 5775 5780 5787 5811 5812 5813 5813 5810 5803 5799 5810 5795 5801 5802 5792 5761 5773 5804 5817 5806 5782 5797 5805 5803 5794 5788 5795 5807 5807 5801
5728 5730 5734 5737 5741 5744 5748 5752 5755 5759 5762 5765 5766 5769 5771 5773 5775 5793 5817 5814 5813 5814 5812 5810 5810 5806 5793 5802 5800 5798 5771 5801 5810 5820 5829 5809 5807 5816 5802 5783 5787 5783 5794 5800 5797
5731 5733 5735 5739 5742 5746 5749 5752 5755 5759 5763 5765 5766 5769 5772 5775 5757 5807 5816 5814 5814 5814 5808 5804 5803 5793 5789 5783 5806 5785 5806 5813 5818 5822 5825 5815 5814 5799 5798 5797 5803 5797 5797 5796 5790
5732 5735 5737 5740 5744 5747 5750 5753 5756 5760 5763 5765 5766 5769 5778 5772 5780 5816 5815 5813 5814 5809 5800 5796 5789 5792 5780 5793 5799 5799 5811 5820 5821 5824 5820 5825 5802 5796 5795 5805 5808 5802 5795 5792 5778
5734 5736 5739 5742 5745 5748 5751 5754 5757 5760 5763 5765 5766 5771 5771 5760 5818 5819 5817 5814 5813 5807 5805 5802 5798 5809 5800 5798 5793 5817 5815 5813 5820 5818 5815 5809 5803 5796 5798 5812 5799 5798 5788 5786 5772
5735 5738 5740 5743 5746 5749 5752 5755 5758 5762 5764 5765 5766 5769 5769 5772 5822 5821 5820 5816 5819 5817 5806 5816 5817 5801 5797 5787 5813 5812 5792 5799 5808 5810 5804 5813 5789 5778 5799 5806 5796 5792 5791 5777 5771
5735 5739 5742 5745 5748 5750 5753 5757 5761 5765 5766 5766 5766 5769 5761 5816 5820 5818 5820 5815 5824 5824 5818 5821 5819 5802 5795 5802 5796 5790 5787 5758 5791 5800 5799 5793 5754 5785 5795 5791 5785 5785 5785 5772 5767
5735 5739 5742 5746 5749 5752 5756 5761 5765 5768 5767 5766 5765 5764 5763 5818 5804 5817 5820 5806 5814 5818 5819 5820 5809 5786 5786 5766 5753 5772 5740 5754 5771 5800 5790 5781 5762 5780 5791 5786 5780 5778 5776 5768 5755
5736 5740 5744 5747 5750 5753 5759 5763 5768 5769 5772 5770 5773 5755 5782 5788 5805 5812 5818 5812 5799 5801 5796 5792 5781 5761 5759 5749 5716 5737 5746 5758 5769 5792 5787 5769 5765 5775 5786 5783 5779 5777 5771 5760 5753
5737 5742 5746 5748 5750 5753 5760 5765 5757 5754 5764 5762 5771 5776 5792 5807 5815 5804 5812 5802 5798 5787 5761 5777 5750 5734 5751 5763 5769 5769 5763 5759 5778 5794 5781 5770 5770 5768 5777 5778 5772 5769 5769 5754 5749
5737 5742 5747 5751 5752 5752 5752 5753 5767 5775 5753 5779 5784 5787 5800 5806 5785 5798 5812 5781 5777 5755 5773 5759 5739 5769 5782 5783 5773 5767 5756 5751 5775 5787 5777 5761 5757 5772 5769 5769 5772 5769 5767 5752 5741
5735 5741 5746 5751 5755 5753 5759 5765 5792 5791 5752 5776 5789 5786 5790 5796 5781 5785 5797 5786 5772 5760 5762 5751 5766 5784 5775 5765 5761 5760 5749 5746 5748 5769 5771 5761 5738 5752 5773 5773 5769 5770 5769 5751 5739
5733 5739 5745 5751 5750 5763 5762 5787 5790 5790 5726 5759 5773 5785 5793 5792 5771 5801 5802 5784 5772 5759 5767 5763 5780 5768 5762 5756 5760 5738 5758 5753 5748 5728 5706 5747 5687 5734 5736 5751 5751 5747 5747 5741 5732
5732 5738 5743 5744 5745 5752 5775 5788 5788 5771 5689 5768 5776 5809 5797 5773 5779 5779 5802 5784 5756 5758 5759 5744 5755 5752 5749 5748 5758 5741 5753 5743 5741 5722 5715 5717 5688 5699 5707 5691 5703 5714 5737 5727 5724
5731 5737 5743 5745 5747 5765 5777 5784 5771 5715 5695 5759 5778 5769 5767 5773 5777 5780 5780 5788 5782 5761 5762 5756 5778 5767 5757 5758 5757 5759 5743 5730 5725 5712 5674 5682 5674 5675 5679 5673 5669 5680 5716 5719 5711
5731 5739 5739 5747 5746 5771 5775 5757 5708 5697 5768 5756 5759 5770 5763 5759 5765 5769 5761 5747 5734 5724 5722 5742 5748 5762 5760 5738 5747 5734 5711 5664 5662 5661 5665 5698 5667 5664 5685 5682 5689 5686 5703 5697 5689
5731 5740 5748 5753 5761 5766 5756 5722 5696 5736 5744 5775 5770 5767 5755 5765 5761 5761 5750 5733 5750 5744 5717 5701 5696 5737 5748 5736 5721 5720 5710 5665 5650 5650 5662 5698 5660 5660 5693 5696 5697 5695 5684 5682 5673
5728 5740 5743 5757 5761 5760 5728 5697 5710 5734 5749 5744 5755 5747 5747 5760 5753 5748 5745 5732 5734 5732 5707 5698 5704 5736 5740 5744 5731 5710 5689 5713 5681 5685 5659 5661 5663 5674 5684 5690 5693 5689 5684 5672 5666
5712 5725 5737 5762 5761 5744 5712 5701 5724 5750 5753 5749 5727 5740 5724 5735 5730 5731 5734 5735 5726 5729 5729 5708 5678 5721 5727 5736 5731 5711 5720 5668 5658 5632 5636 5651 5645 5641 5660 5660 5662 5658 5659 5660 5659
5706 5706 5743 5757 5754 5720 5692 5710 5728 5745 5749 5733 5723 5721 5722 5723 5723 5721 5719 5713 5721 5715 5719 5700 5690 5691 5712 5700 5691 5689 5679 5671 5666 5655 5628 5626 5637 5668 5652 5655 5657 5654 5648 5643 5642
5687 5683 5738 5747 5702 5706 5700 5716 5729 5737 5744 5737 5736 5727 5718 5717 5711 5712 5705 5702 5717 5714 5692 5688 5681 5665 5680 5705 5713 5701 5687 5675 5630 5640 5644 5625 5618 5670 5651 5652 5649 5644 5640 5637 5630
5666 5687 5725 5729 5680 5686 5706 5714 5730 5725 5723 5720 5715 5718 5721 5707 5693 5705 5705 5708 5713 5702 5684 5682 5658 5636 5654 5678 5689 5680 5684 5677 5669 5652 5639 5612 5620 5643 5646 5644 5641 5626 5624 5623 5617
5655 5665 5685 5704 5699 5690 5686 5695 5699 5720 5715 5714 5708 5709 5700 5695 5698 5693 5698 5700 5701 5690 5686 5681 5662 5648 5626 5646 5662 5659 5675 5666 5661 5623 5632 5633 5629 5621 5625 5631 5627 5616 5612 5608 5600
5647 5654 5663 5657 5668 5680 5678 5680 5683 5683 5704 5707 5696 5694 5684 5675 5684 5681 5691 5687 5685 5678 5680 5669 5648 5656 5657 5663 5667 5664 5667 5671 5660 5654 5627 5642 5630 5609 5613 5613 5611 5610 5606 5597 5588
5624 5637 5656 5648 5660 5672 5670 5668 5668 5679 5677 5673 5674 5680 5679 5661 5661 5662 5677 5672 5665 5668 5662 5659 5640 5652 5645 5657 5658 5653 5661 5663 5661 5658 5651 5627 5613 5621 5615 5609 5600 5593 5587 5580 5573
5626 5637 5635 5641 5644 5649 5657 5662 5667 5669 5675 5678 5670 5667 5662 5662 5672 5673 5678 5677 5676 5663 5652 5647 5631 5624 5623 5643 5643 5623 5647 5650 5644 5634 5631 5606 5600 5607 5601 5596 5588 5581 5580 5575 5563